Tracking 29892 objects as of 21-Nov-2024
HD Live streaming from Space Station
objects crossing your sky now

COSMOS 249 DEB

Track COSMOS 249 DEB now!
10-day predictions


NORAD ID: 20011
Int'l Code: 1968-091DN
Perigee: 737.4 km
Apogee: 1,739.3 km
Inclination: 62.2 °
Period: 110.1 minutes
Semi major axis: 7609 km
RCS: 0.0215 m2 (small)
Launch date: October 20, 1968
Source: Commonwealth of Independent States (former USSR) (CIS)
Launch site: TYURATAM MISSILE AND SPACE COMPLEX (TTMTR)

Note: This is SATELLITE DEBRIS
Your satellite tracking list
NOAA 16 DEB
Track 1 satellite(s)




NASA's NSSDC Master Catalog

Two Line Element Set (TLE):
1 20011U 68091DN  24323.31900160  .00005582  00000-0  57598-2 0  9998
2 20011  62.2239  87.8427 0658320 170.7786 190.6030 13.07928915567479
Source of the keplerian elements: AFSPC